User: anonymous   Login
Location: Pleiades Observatory
(40.1297°N, 91.5238°W)
Time: 13:47:05
(UTC-05:00)
Language:

Cosmos 1842 Rocket - Orbit

View from above orbital plane
View from above orbital plane
View from above satellite
View from above satellite

Ground track
Ground track

The orbit data is extracted from the following two-line orbital elements,

1 17912U 87038B   17206.01763274 +.00000061 +00000-0 +44466-5 0  9998
2 17912 082.5014 014.8745 0021795 105.0914 255.2714 14.82936986612253
Epoch (UTC): 25 July 2017 00:25:23
Eccentricity: 0.0021795
inclination: 82.5014°
perigee height: 605 km
apogee height: 635 km
right ascension of ascending node: 14.8745°
argument of perigee: 105.0914°
revolutions per day: 14.82936986
mean anomaly at epoch: 255.2714°
orbit number at epoch: 61225

The dashed part of the orbit path shows where the satellite is in the earth's shadow,  

DLR